When you browse on this site, cookies collect data to enhance your experience and personalize the content and advertising you see.
Visit our Privacy Policy to learn more. By continuing to use the site, you agree to this use of cookies and data.
  • In Hungary
  • List of Countries
  • For 7 days
  • Water Temperature
  • Weather Map
  • News
  • Weather Widgets
  • user-avatar
    Login

    Hourly Weather Wiluki

    Today, 9 December, Monday

    Time Temperature Precipitation Wind Pressure Humidity
    00:00 +3°C° 0.2 mm 6 mps 736 mmHg 80%
    01:00 +3°C° 0.2 mm 7 mps 736 mmHg 80%
    02:00 +3°C° 0 mm 6 mps 736 mmHg 78%
    03:00 +3°C° 0.4 mm 6 mps 735 mmHg 82%
    04:00 +3°C° 0.4 mm 6 mps 735 mmHg 85%
    05:00 +3°C° 0.4 mm 5 mps 735 mmHg 89%
    06:00 +3°C° 0.1 mm 5 mps 735 mmHg 88%
    07:00 +3°C° 0.1 mm 5 mps 735 mmHg 86%
    08:00 +3°C° 0.1 mm 5 mps 736 mmHg 85%
    09:00 +3°C° 0.1 mm 6 mps 736 mmHg 85%
    10:00 +3°C° 0.1 mm 6 mps 736 mmHg 84%
    11:00 +4°C° 0.1 mm 6 mps 736 mmHg 84%
    12:00 +5°C° 0 mm 5 mps 736 mmHg 83%
    13:00 +6°C° 0 mm 5 mps 737 mmHg 81%
    14:00 +6°C° 0 mm 5 mps 737 mmHg 80%
    15:00 +6°C° 0 mm 4 mps 737 mmHg 83%
    16:00 +5°C° 0 mm 4 mps 737 mmHg 85%
    17:00 +5°C° 0 mm 4 mps 737 mmHg 87%
    18:00 +4°C° 0 mm 3 mps 738 mmHg 88%
    19:00 +4°C° 0 mm 3 mps 738 mmHg 89%
    20:00 +3°C° 0 mm 3 mps 738 mmHg 90%
    21:00 +3°C° 0 mm 3 mps 738 mmHg 91%
    22:00 +3°C° 0 mm 3 mps 738 mmHg 92%
    23:00 +2°C° 0 mm 3 mps 739 mmHg 92%

    Tomorrow, 10 December, Tuesday

    Time Temperature Precipitation Wind Pressure Humidity
    00:00 +2°C° 0 mm 3 mps 739 mmHg 92%
    01:00 +2°C° 0 mm 3 mps 739 mmHg 92%
    02:00 +2°C° 0 mm 3 mps 739 mmHg 92%
    03:00 +1°C° 0 mm 3 mps 739 mmHg 92%
    04:00 +1°C° 0 mm 3 mps 739 mmHg 92%
    05:00 +1°C° 0 mm 3 mps 740 mmHg 92%
    06:00 +1°C° 0 mm 3 mps 740 mmHg 92%
    07:00 +1°C° 0 mm 3 mps 741 mmHg 92%
    08:00 +1°C° 0 mm 3 mps 741 mmHg 92%
    09:00 0°C° 0 mm 4 mps 742 mmHg 90%
    10:00 +1°C° 0 mm 4 mps 742 mmHg 88%
    11:00 +2°C° 0 mm 5 mps 742 mmHg 86%
    12:00 +2°C° 0 mm 5 mps 743 mmHg 81%
    13:00 +2°C° 0 mm 5 mps 743 mmHg 75%
    14:00 +2°C° 0 mm 6 mps 744 mmHg 69%
    15:00 +1°C° 0 mm 6 mps 744 mmHg 71%
    16:00 +1°C° 0 mm 6 mps 744 mmHg 73%
    17:00 -1°C° 0 mm 6 mps 744 mmHg 75%
    18:00 -1°C° 0 mm 6 mps 745 mmHg 80%
    19:00 -1°C° 0 mm 6 mps 746 mmHg 86%
    20:00 -1°C° 0 mm 6 mps 746 mmHg 91%
    21:00 -1°C° 0.1 mm 6 mps 747 mmHg 89%
    22:00 -1°C° 0.1 mm 6 mps 747 mmHg 87%
    23:00 -1°C° 0.1 mm 6 mps 747 mmHg 85%

    Day after tomorrow, 11 December, Wednesday

    Time Temperature Precipitation Wind Pressure Humidity
    00:00 -1°C° 0 mm 5 mps 748 mmHg 84%
    01:00 -1°C° 0 mm 5 mps 748 mmHg 84%
    02:00 -1°C° 0 mm 4 mps 748 mmHg 83%
    03:00 -2°C° 0 mm 4 mps 748 mmHg 83%
    04:00 -2°C° 0 mm 4 mps 748 mmHg 83%
    05:00 -1°C° 0 mm 3 mps 748 mmHg 83%
    06:00 -1°C° 0 mm 3 mps 748 mmHg 83%
    07:00 -1°C° 0 mm 2 mps 749 mmHg 84%
    08:00 -1°C° 0 mm 2 mps 749 mmHg 84%
    09:00 -1°C° 0 mm 2 mps 749 mmHg 82%
    10:00 +1°C° 0 mm 1 mps 749 mmHg 81%
    11:00 +1°C° 0 mm 1 mps 749 mmHg 79%
    12:00 +1°C° 0 mm 1 mps 749 mmHg 77%
    13:00 +1°C° 0 mm 0 mps 748 mmHg 75%
    14:00 +1°C° 0 mm 0 mps 748 mmHg 74%
    15:00 +2°C° 0 mm 1 mps 748 mmHg 77%
    16:00 -1°C° 0 mm 2 mps 747 mmHg 81%
    17:00 -1°C° 0 mm 2 mps 747 mmHg 85%
    18:00 -1°C° 0 mm 3 mps 747 mmHg 83%
    19:00 -1°C° 0 mm 3 mps 747 mmHg 80%
    20:00 -1°C° 0 mm 4 mps 747 mmHg 78%
    21:00 -2°C° 0 mm 4 mps 746 mmHg 76%
    22:00 -2°C° 0 mm 4 mps 746 mmHg 74%
    23:00 -2°C° 0 mm 4 mps 746 mmHg 72%

    12 December, Thursday

    Time Temperature Precipitation Wind Pressure Humidity
    00:00 -2°C° 0 mm 4 mps 745 mmHg 72%
    01:00 -2°C° 0 mm 5 mps 745 mmHg 71%
    02:00 -2°C° 0 mm 5 mps 744 mmHg 71%
    03:00 -2°C° 0 mm 5 mps 744 mmHg 76%
    04:00 -2°C° 0 mm 5 mps 743 mmHg 82%
    05:00 -2°C° 0 mm 5 mps 743 mmHg 87%
    06:00 -1°C° 0 mm 5 mps 742 mmHg 89%
    07:00 -1°C° 0 mm 5 mps 742 mmHg 90%
    08:00 -1°C° 0 mm 4 mps 742 mmHg 92%
    09:00 -1°C° 0 mm 5 mps 742 mmHg 88%
    10:00 -1°C° 0 mm 5 mps 742 mmHg 84%
    11:00 -1°C° 0 mm 5 mps 741 mmHg 79%
    12:00 -1°C° 0 mm 5 mps 741 mmHg 75%
    13:00 -1°C° 0 mm 5 mps 741 mmHg 71%
    14:00 0°C° 0 mm 5 mps 741 mmHg 67%
    15:00 -1°C° 0 mm 4 mps 741 mmHg 68%
    16:00 -1°C° 0 mm 4 mps 741 mmHg 70%
    17:00 -1°C° 0 mm 3 mps 740 mmHg 71%
    18:00 -1°C° 0 mm 3 mps 740 mmHg 72%
    19:00 -1°C° 0 mm 3 mps 740 mmHg 74%
    20:00 -2°C° 0 mm 2 mps 740 mmHg 75%
    21:00 -1°C° 0 mm 3 mps 740 mmHg 78%
    22:00 -1°C° 0 mm 3 mps 739 mmHg 80%
    23:00 -2°C° 0 mm 4 mps 739 mmHg 83%

    13 December, Friday

    Time Temperature Precipitation Wind Pressure Humidity
    00:00 -2°C° 0 mm 4 mps 739 mmHg 80%
    01:00 -2°C° 0 mm 4 mps 738 mmHg 78%
    02:00 -2°C° 0 mm 4 mps 738 mmHg 76%
    03:00 -2°C° 0 mm 4 mps 737 mmHg 78%
    04:00 -2°C° 0 mm 4 mps 736 mmHg 80%
    05:00 -2°C° 0 mm 4 mps 736 mmHg 82%
    06:00 -2°C° 0 mm 4 mps 735 mmHg 86%
    07:00 -2°C° 0 mm 4 mps 734 mmHg 90%
    08:00 -2°C° 0 mm 4 mps 734 mmHg 94%
    09:00 -1°C° 0 mm 5 mps 733 mmHg 92%
    10:00 -1°C° 0 mm 5 mps 733 mmHg 90%
    11:00 -1°C° 0 mm 6 mps 732 mmHg 88%
    12:00 -1°C° 0 mm 6 mps 731 mmHg 83%
    13:00 0°C° 0 mm 7 mps 730 mmHg 78%
    14:00 0°C° 0 mm 7 mps 730 mmHg 73%
    15:00 0°C° 0 mm 7 mps 729 mmHg 72%
    16:00 0°C° 0 mm 7 mps 729 mmHg 70%
    17:00 -1°C° 0 mm 7 mps 729 mmHg 69%
    18:00 -1°C° 0 mm 7 mps 729 mmHg 69%
    19:00 -1°C° 0 mm 7 mps 729 mmHg 70%
    20:00 -1°C° 0 mm 8 mps 729 mmHg 70%
    21:00 -1°C° 0.1 mm 8 mps 729 mmHg 78%
    22:00 -1°C° 0.1 mm 8 mps 728 mmHg 86%
    23:00 -1°C° 0.1 mm 8 mps 728 mmHg 95%

    14 December, Saturday

    Time Temperature Precipitation Wind Pressure Humidity
    00:00 -1°C° 0.2 mm 7 mps 728 mmHg 92%
    01:00 +1°C° 0.2 mm 6 mps 728 mmHg 89%
    02:00 +1°C° 0.2 mm 6 mps 728 mmHg 87%
    03:00 +1°C° 0 mm 5 mps 729 mmHg 87%
    04:00 0°C° 0 mm 5 mps 729 mmHg 88%
    05:00 0°C° 0 mm 4 mps 729 mmHg 88%
    06:00 0°C° 0 mm 5 mps 730 mmHg 88%
    07:00 0°C° 0 mm 5 mps 730 mmHg 87%
    08:00 0°C° 0 mm 5 mps 730 mmHg 87%
    09:00 0°C° 0 mm 5 mps 731 mmHg 84%
    10:00 +1°C° 0 mm 5 mps 731 mmHg 82%
    11:00 +2°C° 0 mm 5 mps 732 mmHg 80%
    12:00 +2°C° 0 mm 5 mps 732 mmHg 81%
    13:00 +2°C° 0 mm 5 mps 731 mmHg 82%
    14:00 +2°C° 0 mm 5 mps 731 mmHg 83%
    15:00 +3°C° 0.1 mm 4 mps 731 mmHg 87%
    16:00 +1°C° 0.1 mm 4 mps 732 mmHg 91%
    17:00 +1°C° 0.1 mm 4 mps 732 mmHg 96%
    18:00 +1°C° 0.2 mm 4 mps 732 mmHg 94%
    19:00 +1°C° 0.2 mm 4 mps 732 mmHg 92%
    20:00 +2°C° 0.2 mm 3 mps 732 mmHg 90%
    21:00 +1°C° 0 mm 4 mps 733 mmHg 90%
    22:00 +1°C° 0 mm 4 mps 733 mmHg 90%
    23:00 0°C° 0 mm 4 mps 733 mmHg 90%
    Show more